Change the Weather History Date:

Wednesday, December 26, 2012

  Actual Average Record
Temperature  
Mean Temperature 55 °F -  
Max Temperature 66 °F 52 °F 66 °F (2012)
Min Temperature 43 °F 31 °F 25 °F (2010)
Degree Days  
Heating Degree Days 10    
Growing Degree Days 5 (Base 50)    
Moisture  
Dew Point 47 °F    
Average Humidity 89    
Maximum Humidity 100    
Minimum Humidity 54    
Precipitation  
Precipitation 0.89 in - - ()
Sea Level Pressure  
Sea Level Pressure 29.72 in    
Wind  
Wind Speed 9 mph (ENE)    
Max Wind Speed 17 mph    
Max Gust Speed 31 mph    
Visibility 7 miles    
Events Rain , Thunderstorm    
Averages and records for this station are not official NWS values.
T = Trace of Precipitation, MM = Missing Value Source: NWS Daily Summary

Daily Weather History Graph

Daily Weather History Graph

Search for Another Location

Airport or City:

Trip Planner

Search our weather history database for the weather conditions in past years. The results will help you decide how hot, cold, wet, or windy it might be!

Date:

Astronomy

Dec. 26, 2012 Rise Set
Actual Time 7:24 AM EST 5:13 PM EST
Civil Twilight 6:56 AM EST 5:41 PM EST
Nautical Twilight 6:24 AM EST 6:13 PM EST
Astronomical Twilight 5:53 AM EST 6:43 PM EST
Moon 4:04 PM EST (12/26) 5:47 AM EST (12/26)
Length of Visible Light 10h 45m
Length of Day
9h 48m
Waxing Gibbous, 97% of the Moon is Illuminated
Dec 26
Waxing Gibbous
Dec 28
Full
Jan 4
Last Quarter
Jan 11
New
Jan 18
First Quarter

Hourly Weather History & Observations

Time (EST) Temp. Windchill Dew Point Humidity Pressure Visibility Wind Dir Wind Speed Gust Speed Precip Events Conditions
12:10 AM 51.8 °F - 48.2 °F 88% 30.02 in 10.0 mi ESE 8.1 mph 15.0 mph N/A   Mostly Cloudy
12:26 AM 51.8 °F - 48.2 °F 88% 30.02 in 10.0 mi East 6.9 mph - N/A   Mostly Cloudy
12:41 AM 51.8 °F - 46.4 °F 82% 30.01 in 10.0 mi East 9.2 mph 16.1 mph N/A   Mostly Cloudy
12:55 AM 51.3 °F - 45.1 °F 80% 30.01 in 10.0 mi Variable 6.9 mph - N/A   Mostly Cloudy
1:29 AM 50.0 °F - 44.6 °F 82% 30.01 in 10.0 mi ENE 10.4 mph - N/A Rain Light Rain
2:30 AM 48.2 °F - 42.8 °F 82% 29.99 in 10.0 mi East 10.4 mph - N/A   Mostly Cloudy
2:33 AM 48.2 °F - 42.8 °F 82% 29.99 in 10.0 mi ENE 10.4 mph - N/A Rain Light Rain Showers
2:54 AM 46.4 °F 41.9 °F 42.8 °F 87% 29.97 in 10.0 mi ENE 9.2 mph - N/A   Mostly Cloudy
2:55 AM 46.6 °F - 42.6 °F 86% 29.97 in 10.0 mi ENE 8.1 mph - 0.00 in   Mostly Cloudy
3:20 AM 46.4 °F 41.9 °F 42.8 °F 87% 29.97 in 10.0 mi ENE 9.2 mph - N/A   Mostly Cloudy
3:41 AM 46.4 °F 41.1 °F 42.8 °F 87% 29.95 in 10.0 mi East 11.5 mph 18.4 mph N/A Rain Light Rain
3:55 AM 46.0 °F 40.2 °F 43.0 °F 89% 29.94 in 10.0 mi ENE 12.7 mph 18.4 mph N/A Rain Light Rain Showers
4:00 AM 46.4 °F 40.7 °F 42.8 °F 87% 29.94 in 10.0 mi ENE 12.7 mph 19.6 mph N/A Rain Light Rain Showers
4:09 AM 46.4 °F 41.1 °F 42.8 °F 87% 29.92 in 10.0 mi ENE 11.5 mph 18.4 mph N/A   Overcast
4:14 AM 46.4 °F 41.9 °F 42.8 °F 87% 29.91 in 10.0 mi ENE 9.2 mph 18.4 mph N/A Rain Light Rain Showers
4:18 AM 44.6 °F 38.8 °F 42.8 °F 93% 29.90 in 9.0 mi ENE 11.5 mph 19.6 mph N/A Rain Light Rain Showers
4:55 AM 44.8 °F 40.4 °F 43.5 °F 95% 29.90 in 4.0 mi ENE 8.1 mph 18.4 mph 0.13 in Rain Heavy Rain Showers
5:00 AM 44.6 °F 41.4 °F 42.8 °F 93% 29.91 in 3.0 mi Variable 5.8 mph - N/A Rain Heavy Rain Showers
5:31 AM 44.6 °F 41.4 °F 44.6 °F 100% 29.88 in 10.0 mi Variable 5.8 mph - N/A Rain Light Rain
5:55 AM 45.1 °F 39.9 °F 43.9 °F 95% 29.87 in 10.0 mi East 10.4 mph - 0.06 in Rain Light Rain
6:35 AM 44.6 °F 38.8 °F 44.6 °F 100% 29.82 in 7.0 mi East 11.5 mph 17.3 mph N/A Rain Light Rain
6:55 AM 45.3 °F 40.1 °F 44.1 °F 95% 29.82 in 10.0 mi East 10.4 mph - 0.09 in Rain Light Rain
7:10 AM 44.6 °F 39.2 °F 44.6 °F 100% 29.80 in 10.0 mi East 10.4 mph - N/A Rain Light Rain Showers
7:31 AM 46.4 °F 40.7 °F 44.6 °F 93% 29.81 in 10.0 mi East 12.7 mph 19.6 mph N/A Rain Light Rain Showers
7:48 AM 46.4 °F 41.9 °F 44.6 °F 93% 29.78 in 10.0 mi ENE 9.2 mph - N/A Rain , Thunderstorm Light Rain Showers
7:55 AM 45.7 °F 41.0 °F 44.8 °F 97% 29.76 in 9.0 mi ENE 9.2 mph 17.3 mph 0.00 in Rain , Thunderstorm Light Rain Showers
8:00 AM 46.4 °F 43.5 °F 44.6 °F 93% 29.76 in 2.5 mi ENE 5.8 mph 17.3 mph N/A Rain Rain Showers
8:02 AM 46.4 °F 42.9 °F 44.6 °F 93% 29.75 in 1.8 mi ENE 6.9 mph - N/A Rain Heavy Rain Showers
8:03 AM 46.4 °F 43.5 °F 44.6 °F 93% 29.75 in 1.5 mi Variable 5.8 mph - N/A Rain Heavy Rain Showers
8:05 AM 46.4 °F 44.3 °F 44.6 °F 93% 29.75 in 1.2 mi Variable 4.6 mph - N/A Rain Heavy Rain Showers
8:09 AM 46.4 °F 43.5 °F 44.6 °F 93% 29.75 in 1.5 mi Variable 5.8 mph - N/A Rain Heavy Rain Showers
8:10 AM 46.4 °F 42.9 °F 44.6 °F 93% 29.75 in 1.8 mi Variable 6.9 mph - N/A Rain Heavy Rain Showers
8:11 AM 46.4 °F 42.9 °F 44.6 °F 93% 29.76 in 2.0 mi Variable 6.9 mph - N/A Rain Heavy Rain Showers
8:12 AM 46.4 °F 43.5 °F 44.6 °F 93% 29.76 in 1.8 mi Variable 5.8 mph - N/A Rain Heavy Rain Showers
8:16 AM 46.4 °F 42.9 °F 44.6 °F 93% 29.75 in 1.5 mi East 6.9 mph - N/A Rain Heavy Rain Showers
8:22 AM 46.4 °F 41.9 °F 44.6 °F 93% 29.73 in 1.8 mi ENE 9.2 mph - N/A Rain , Thunderstorm Heavy Rain Showers
8:25 AM 46.4 °F 41.9 °F 44.6 °F 93% 29.73 in 2.0 mi East 9.2 mph - N/A Rain , Thunderstorm Heavy Rain Showers
8:27 AM 46.4 °F 42.4 °F 46.4 °F 100% 29.74 in 2.5 mi East 8.1 mph - N/A Rain , Thunderstorm Heavy Rain Showers
8:30 AM 46.4 °F 41.9 °F 46.4 °F 100% 29.74 in 3.0 mi East 9.2 mph - N/A Rain , Thunderstorm Heavy Rain Showers
8:37 AM 46.4 °F 44.3 °F 46.4 °F 100% 29.74 in 2.5 mi Variable 4.6 mph - N/A Rain , Thunderstorm Rain Showers
8:42 AM 46.4 °F 42.9 °F 46.4 °F 100% 29.75 in 3.0 mi Variable 6.9 mph - N/A Rain Rain Showers
8:55 AM 46.9 °F - 46.0 °F 97% 29.74 in 8.0 mi East 6.9 mph - 0.24 in Rain Light Rain
9:11 AM 46.4 °F 42.4 °F 46.4 °F 100% 29.73 in 2.5 mi East 8.1 mph - N/A Rain Rain
9:22 AM 48.2 °F - 46.4 °F 93% 29.73 in 3.0 mi Variable 2.3 mph - N/A Rain Heavy Rain
9:28 AM 48.2 °F - 46.4 °F 93% 29.72 in 2.5 mi Variable 4.6 mph - N/A Rain Heavy Rain
9:30 AM 48.2 °F - 46.4 °F 93% 29.72 in 1.8 mi Variable 2.3 mph - N/A Rain Heavy Rain
9:31 AM 48.2 °F - 46.4 °F 93% 29.72 in 1.5 mi Variable 3.5 mph - N/A Rain Heavy Rain
9:37 AM 48.2 °F - 46.4 °F 93% 29.72 in 1.8 mi Variable 3.5 mph - N/A Rain Heavy Rain
9:38 AM 48.2 °F - 46.4 °F 93% 29.73 in 2.0 mi Variable 3.5 mph - N/A Rain Heavy Rain
9:39 AM 48.2 °F - 46.4 °F 93% 29.73 in 2.5 mi Variable 4.6 mph - N/A Rain Heavy Rain
9:40 AM 48.2 °F - 46.4 °F 93% 29.73 in 3.0 mi NW 4.6 mph - N/A Rain Heavy Rain
9:44 AM 48.2 °F - 46.4 °F 93% 29.71 in 2.5 mi NE 4.6 mph - N/A Rain Heavy Rain
9:46 AM 48.2 °F - 46.4 °F 93% 29.70 in 1.8 mi ENE 5.8 mph - N/A Rain Heavy Rain
9:48 AM 48.2 °F - 46.4 °F 93% 29.69 in 1.5 mi ENE 4.6 mph - N/A Rain Heavy Rain
9:51 AM 48.2 °F - 46.4 °F 93% 29.70 in 1.2 mi Variable 3.5 mph - N/A Rain Heavy Rain
9:55 AM 47.3 °F - 46.6 °F 97% 29.70 in 1.5 mi ENE 4.6 mph - 0.28 in Rain Heavy Rain
9:57 AM 48.2 °F - 46.4 °F 93% 29.69 in 1.8 mi NE 4.6 mph - N/A Rain Heavy Rain
10:00 AM 48.2 °F - 46.4 °F 93% 29.68 in 2.0 mi ENE 5.8 mph - N/A Rain Heavy Rain
10:02 AM 48.2 °F - 46.4 °F 93% 29.68 in 2.5 mi ENE 6.9 mph - N/A Rain Heavy Rain
10:03 AM 48.2 °F - 46.4 °F 93% 29.68 in 3.0 mi ENE 8.1 mph - N/A Rain Heavy Rain
10:55 AM 50.0 °F - 49.5 °F 98% 29.62 in 10.0 mi East 8.1 mph - 0.05 in Rain Light Rain
11:55 AM 55.9 °F - 55.2 °F 97% 29.53 in 10.0 mi SSE 10.4 mph - 0.04 in Rain , Thunderstorm Light Rain Showers
12:08 PM 59.0 °F - 59.0 °F 100% 29.54 in 10.0 mi SSW 13.8 mph 21.9 mph N/A   Overcast
12:50 PM 60.8 °F - 60.8 °F 100% 29.48 in 10.0 mi SW 11.5 mph - N/A   Mostly Cloudy
12:55 PM 61.5 °F - 59.7 °F 94% 29.48 in 10.0 mi WSW 9.2 mph - N/A   Mostly Cloudy
1:00 PM 62.6 °F - 59.0 °F 88% 29.48 in 10.0 mi SW 8.1 mph 15.0 mph N/A   Mostly Cloudy
1:04 PM 62.6 °F - 60.8 °F 94% 29.47 in 10.0 mi SW 12.7 mph 16.1 mph N/A   Mostly Cloudy
1:10 PM 62.6 °F - 60.8 °F 94% 29.47 in 10.0 mi SW 12.7 mph 18.4 mph N/A   Mostly Cloudy
1:20 PM 64.4 °F - 60.8 °F 88% 29.46 in 10.0 mi SW 5.8 mph 17.3 mph N/A   Mostly Cloudy
1:55 PM 64.6 °F - 60.1 °F 85% 29.43 in 10.0 mi WNW 4.6 mph 11.5 mph N/A   Mostly Cloudy
2:02 PM 66.2 °F - 57.2 °F 73% 29.43 in 10.0 mi SW 10.4 mph 16.1 mph N/A   Mostly Cloudy
2:05 PM 66.2 °F - 59.0 °F 78% 29.43 in 10.0 mi West 11.5 mph 18.4 mph N/A   Mostly Cloudy
2:19 PM 60.8 °F - 57.2 °F 88% 29.44 in 10.0 mi NNW 9.2 mph 31.1 mph N/A   Mostly Cloudy
2:24 PM 60.8 °F - 55.4 °F 82% 29.44 in 10.0 mi NW 8.1 mph 15.0 mph N/A   Scattered Clouds
2:55 PM 60.8 °F - 55.9 °F 84% 29.44 in 10.0 mi Variable 4.6 mph - N/A   Partly Cloudy
3:55 PM 62.2 °F - 46.6 °F 57% 29.46 in 10.0 mi SW 16.1 mph 27.6 mph N/A   Scattered Clouds
4:55 PM 59.4 °F - 42.8 °F 54% 29.48 in 10.0 mi WSW 13.8 mph - N/A   Mostly Cloudy
5:55 PM 54.9 °F - 47.8 °F 77% 29.53 in 10.0 mi WNW 12.7 mph 23.0 mph N/A   Mostly Cloudy
6:19 PM 51.8 °F - 46.4 °F 82% 29.55 in 10.0 mi WNW 15.0 mph 26.5 mph N/A   Mostly Cloudy
6:31 PM 51.8 °F - 44.6 °F 76% 29.56 in 10.0 mi WNW 17.3 mph 29.9 mph N/A Rain Light Rain
6:50 PM 48.2 °F - 46.4 °F 93% 29.57 in 10.0 mi WNW 15.0 mph 21.9 mph N/A Rain Light Rain
6:55 PM 48.6 °F - 45.3 °F 89% 29.57 in 10.0 mi WNW 16.1 mph 23.0 mph N/A Rain Light Rain
7:08 PM 48.2 °F - 44.6 °F 87% 29.58 in 10.0 mi WNW 10.4 mph - N/A   Mostly Cloudy
7:20 PM 48.2 °F - 44.6 °F 87% 29.59 in 10.0 mi West 11.5 mph - N/A   Mostly Cloudy
7:34 PM 48.2 °F - 44.6 °F 87% 29.60 in 10.0 mi West 8.1 mph 17.3 mph N/A   Mostly Cloudy
7:55 PM 48.4 °F - 41.0 °F 76% 29.61 in 10.0 mi West 12.7 mph - N/A   Overcast
8:55 PM 47.3 °F - 36.9 °F 67% 29.65 in 10.0 mi West 12.7 mph 21.9 mph N/A   Overcast
9:55 PM 46.0 °F 40.2 °F 35.6 °F 67% 29.67 in 10.0 mi WSW 12.7 mph 21.9 mph N/A   Mostly Cloudy
10:55 PM 44.2 °F 37.6 °F 35.1 °F 70% 29.70 in 10.0 mi WSW 13.8 mph 23.0 mph N/A   Mostly Cloudy
11:04 PM 44.6 °F 38.4 °F 35.6 °F 71% 29.70 in 10.0 mi West 12.7 mph 23.0 mph N/A   Mostly Cloudy
11:09 PM 44.6 °F 38.4 °F 35.6 °F 71% 29.70 in 10.0 mi WSW 12.7 mph 20.7 mph N/A   Mostly Cloudy
11:55 PM 43.2 °F 37.4 °F 34.9 °F 73% 29.71 in 10.0 mi WSW 10.4 mph - N/A   Mostly Cloudy